Powrót do katalogu

NOAA 16 DEB

AktywnySSO
NORAD 41356·DEBRIS·🇺🇸 United States

Wystrzelony Sep 21, 2000 z Vandenberg Space Force Base

Loading…

Następne Przeloty (najbliższe 24 godziny)

TLE

ŚwieżeSource: Space-Track

Epoka: Sep 13, 2026, 09:08 UTC

1 41356U 00055HZ  26256.38107992  .00002217  00000-0  97807-3 0  9995
2 41356  98.7447 311.6457 0037257 238.5483 121.2051 14.23986207549927

Śledź NOAA 16 DEB w czasie rzeczywistym z AllMySat

Download on the App Store